Regional Weather Roundup
Issued by NWS

Home | Current Version | Previous Version | Graphics & Text | Print | Product List | Glossary On
Versions: 1 2 3 4 5 6 7 8 9 10 11 12 13 14 15 16 17 18 19 20 21 22 23 24 25 26 27 28 29
000
ASUS45 KGTF 241710
RWRMT
MONTANA HOURLY WEATHER ROUNDUP
NATIONAL WEATHER SERVICE GREAT FALLS MT
1100 AM MDT FRI APR 24 2015

NOTE: "FAIR" INDICATES FEW OR NO CLOUDS BELOW 12000 FEET WITH NO
SIGNIFICANT WEATHER AND/OR OBSTRUCTIONS TO VISIBILITY.

MTZ001>007-043-241800-
WEST OF THE DIVIDE

CITY           SKY/WX    TMP DP  RH WIND       PRES   REMARKS
KALISPELL      CLOUDY    51  35  54 SE9       29.70F
MISSOULA       CLOUDY    48  36  63 VRB5      29.73S
BUTTE          CLOUDY    41  33  73 NW7       29.69F
DEER LODGE       N/A     41  36  81 N7        29.75S
EUREKA           N/A     48  28  46 S9G20     29.70R
HAMILTON         N/A     45  37  76 N10       29.71S
LIBBY            N/A     48  28  46 S6        29.73R
$$

MTZ008-052>055-241800-
SOUTHWEST MONTANA

CITY           SKY/WX    TMP DP  RH WIND       PRES   REMARKS
BOZEMAN        CLOUDY    52  34  50 CALM      29.64F
DILLON         CLOUDY    52  27  38 N6        29.62F
$$

MTZ009-010-012-014-046-048-049-054-241800-
EAST SLOPES AND CENTRAL MONTANA

CITY           SKY/WX    TMP DP  RH WIND       PRES   REMARKS
CUT BANK       CLOUDY    47  31  53 W16       29.65F
GREAT FALLS    CLOUDY    49  36  61 CALM      29.65F
MALMSTROM AFB  LGT RAIN  48  36  61 SW2       29.66F
HELENA         LGT RAIN  47  39  74 W9        29.69R
$$

MTZ011-013-016-021-045-047-050-051-241800-
NORTH CENTRAL MONTANA

CITY           SKY/WX    TMP DP  RH WIND       PRES   REMARKS
HAVRE          CLOUDY    54  32  43 W7        29.64R
LEWISTOWN      CLOUDY    51  31  46 NW5       29.65R
CHINOOK          N/A     55  32  41 NW9       29.63S
FORT BENTON      N/A     54  34  47 W9        29.67S
$$

MTZ017>020-022>042-056>058-061-062-241800-
EASTERN PLAINS

CITY           SKY/WX    TMP DP  RH WIND       PRES   REMARKS
BAKER          SUNNY     64  30  27 E8        29.63F
BILLINGS       PTSUNNY   59  40  49 W5        29.62S
GLASGOW        MOSUNNY   55  35  47 SE13      29.60F
JORDAN           N/A     62  41  46 W6        29.59F
LIVINGSTON     PTSUNNY   61  32  33 SW13      29.61F
MILES CITY     SUNNY     63  37  38 VRB7      29.60F
SIDNEY         SUNNY     57  30  35 E5        29.65F
WOLF POINT     MOSUNNY   55  34  45 E10       29.62F
FORSYTH          N/A     64  45  48 NE6       29.59F
PLENTYWOOD       N/A     54  28  37 E10       29.65F
POPLAR           N/A     54  32  43 E8        29.63F
$$

REGIONAL REPORTS...DAKOTAS

CITY           SKY/WX    TMP DP  RH WIND       PRES   REMARKS
WILLISTON      SUNNY     53  28  38 VRB5      29.66F
MINOT          SUNNY     49  31  49 E8        29.69F
DICKINSON      SUNNY     55  31  39 NE7       29.63S
BEACH          FAIR      61  30  31 E9        29.64S
CROSBY         FAIR      54  27  35 E8        29.67F
WATFORD CITY   FAIR      52  30  43 NE8       29.64F
BISMARCK       SUNNY     54  34  46 N7        29.66S
GRAND FORKS    PTSUNNY   50  37  61 SE21G28   29.77F
FARGO          CLOUDY    51  39  63 SE21G29   29.73S
BUFFALO SD       N/A     63  31  30 E9        29.57S
RAPID CITY     MOSUNNY   64  42  44 N13       29.61F
$$

REGIONAL REPORTS...WYOMING/IDAHO/WASHINGTON

CITY           SKY/WX    TMP DP  RH WIND       PRES   REMARKS
GILLETTE       PTSUNNY   59  39  47 CALM      29.63F
SHERIDAN       SUNNY     61  43  51 NE9       29.61F
BUFFALO WY     MOSUNNY   64  36  35 NE9       29.65S
CODY           SUNNY     59  25  27 SW8       29.63F
YELLOWSTONE LA   N/A     41  25  53 VRB3      29.77F
IDAHO FALLS    PTSUNNY   56  36  47 SW16      29.69F
SALMON         CLOUDY    48  37  66 N13       29.66S
BOISE          CLOUDY    48  39  71 NW5       29.75S
SPOKANE        PTSUNNY   44  28  53 SW18      29.77R
$$

REGIONAL REPORTS...ALBERTA

CITY           SKY/WX    TMP DP  RH WIND       PRES   REMARKS
EDMONTON       CLOUDY    39  34  81 E9        29.72R
CALGARY        CLOUDY    45  30  57 N10G17    29.64S
LETHBRIDGE     PTSUNNY   43  32  65 W8        29.65S
MEDICINE HAT   PTSUNNY   50  32  50 W16       29.61R
$$

REGIONAL REPORTS...SASKATCHEWAN

CITY           SKY/WX    TMP DP  RH WIND       PRES   REMARKS
SWIFT CURRENT  CLOUDY    50  37  62 E14       29.59F
REGINA         PTSUNNY   50  30  46 E10       29.68S
SASKATOON      PTSUNNY   50  36  57 E8        29.70S
$$



USA.gov is the U.S. government's official web portal to all federal, state and local government web resources and services.